www.pogodaiklimat.ru

Погода и климат >> Архив погоды >> Греция >> Лариса


ПОГОДА в Ларисе

  • Прогноз погоды в Ларисе
  • Монитор погоды в Ларисе

АРХИВ ПОГОДЫ в Ларисе

Время (UTC), дата Ветер
(напр.,м/с)
 
Видим.   Явления Облачность Т
(С)
Тd
(С)
f
(%)
Тe
(С)
Тes
(С)
Комфортность P
(гПа)
Po
(гПа)
Тmin
(С)
Tmax
(С)
R
(мм)
R24
(мм)
S
(см)
15 20.05 З 7
{10}
10 км 8/1 900 м
[Cu hum Ac trans Cs]
+27.8 +6.3 26 +27 +28 жарко 1009.4 1001.5
18 20.05 З 5
{11}
10 км 6/1 900 м
[Cu hum Ac trans Cs]
+23.6 +6.5 33 +24 +24 комфорт 1010.8 1002.7 +29.2
21 20.05 ЮЗ 3
{8}
10 км 3/1 600 м
[Cu hum Ac trans]
+18.0 +7.4 50 +18 +18 1012.1 1003.8
00 21.05 штиль 0
{4}
10 км 3/0 2000 м
[Ac trans]
+13.8 +8.0 68 +14 +14 1012.2 1003.8
03 21.05 штиль 0
{3}
10 км 1/0
[Ac trans]
+13.0 +8.6 75 +13 +13 1012.1 1003.7
06 21.05 штиль 0
{3}
10 км 3/1 600 м
[Cu hum Ac trans]
+18.6 +9.9 57 +19 +25 1013.0 1004.8 +11.2
09 21.05 штиль 0
{4}
10 км 3/1 600 м
[Cu hum Ac trans]
+25.2 +6.5 30 +25 +44 комфорт 1013.2 1005.1
12 21.05 З 4
{9}
10 км 4/1 600 м
[Cu hum Ac trans Ci fib]
+27.8 +2.9 20 +26 +36 жарко 1012.2 1004.2
15 21.05 ЮЗ 5
{12}
10 км 4/1 600 м
[Cu hum Ac trans Ci fib]
+28.2 +1.2 17 +26 +28 жарко 1011.5 1003.5
18 21.05 З 3
{9}
10 км 3/1 600 м
[Cu hum Ci fib]
+24.2 +5.1 29 +24 +24 комфорт 1012.0 1003.9 +29.2
21 21.05 ЮЗ 2
{8}
10 км 3/1 600 м
[Cu hum Ci fib]
+19.8 +6.4 42 +21 +21 комфорт 1013.7 1005.5
00 22.05 штиль 0
{5}
10 км 3/1 600 м
[Cu hum Ci fib]
+11.4 +7.5 77 +11 +11 1013.7 1005.3
03 22.05 ЮВ 2
{5}
10 км 3/1 600 м
[Cu hum Ci fib]
+12.0 +7.8 75 +11 +11 1013.9 1005.4
06 22.05 штиль 0
{5}
10 км 5/1 900 м
[Cu hum Ci fib]
+18.6 +9.6 56 +19 +25 1015.0 1006.7 +11.4
09 22.05 штиль 0
{4}
10 км 8/1 900 м
[Cu hum Cs]
+23.8 +7.8 36 +24 +42 комфорт 1014.4 1006.3
12 22.05 штиль 0
{5}
10 км 8/1 900 м
[Cu hum Cs]
+26.8 +5.4 25 +26 +44 жарко 1013.2 1005.2
15 22.05 ЮВ 3
{8}
10 км 6/1 900 м
[Cu hum Cs]
+27.4 +8.4 30 +27 +31 жарко 1011.8 1003.8
18 22.05 ЮВ 4
{10}
10 км 5/1 900 м
[Cu hum Cs]
+21.2 +8.4 44 +22 +22 комфорт 1011.7 1003.6 +27.4
21 22.05 штиль 0
{6}
10 км 5/1 900 м
[Cu hum Cs]
+16.0 +8.5 61 +16 +16 1013.1 1004.8
00 23.05 штиль 0
{3}
10 км 5/1 900 м
[Cu hum Cs]
+15.0 +9.2 68 +15 +15 1012.0 1003.7
03 23.05 Ю 2
{3}
10 км 1/1 600 м
[Cu hum Ci fib]
+11.4 +8.5 82 +10 +10 1012.0 1003.6
06 23.05 штиль 0
{3}
10 км 1/1 600 м
[Cu hum]
+18.4 +10.2 59 +19 +26 1012.1 1003.9 +10.2
09 23.05 В 2
{5}
10 км 3/3 600 м
[Cu hum]
+25.6 +9.8 37 +26 +39 жарко 1011.9 1003.9
12 23.05 В 3
{7}
10 км 4/4 600 м
[Cu hum Ci fib]
+27.6 +10.0 33 +28 +38 жарко 1009.4 1001.5
15 23.05 В 5
{10}
10 км 5/4 600 м
[Cu hum Ci fib]
+27.6 +8.6 30 +27 +29 жарко 1007.6 999.6
18 23.05 штиль 0
{10}
10 км гроза без осадков 8/5 540 м
[Cb cap Ac und]
+22.2 +11.5 51 +24 +24 комфорт 1009.0 1000.9 +29.2 0.1
21 23.05 Ю 2
{8}
10 км гроза, ливневой дождь 9/6 540 м
[Cb cap As op]
+15.4 +14.6 95 +15 +15 1012.4 1004.1
00 24.05 З 2
{4}
10 км {морось} 9/6 600 м
[Cu Sc As op]
+15.6 +13.0 85 +15 +15 1010.8 1002.5 3
03 24.05 штиль 0
{4}
10 км {морось} 8/5 900 м
[Sc Ac und]
+14.4 +12.4 88 +14 +14 1010.2 1001.9
06 24.05 штиль 0
{3}
10 км {морось} 8/5 300 м
[St Ac und]
+17.4 +13.0 75 +17 +20 1010.9 1002.6 +14.4 4
09 24.05 СЗ 2
{5}
10 км 4/3 900 м
[Cu hum Ac und]
+22.2 +12.6 54 +25 +36 комфорт 1010.7 1002.6
12 24.05 СВ 3
{6}
10 км 6/4 900 м
[Cu hum Ac und]
+25.2 +11.4 42 +27 +33 жарко 1009.4 1001.3
15 24.05 ЮЗ 6
{8}
10 км 8/4 750 м
[Cu Sc Ac und Ci ing]
+24.2 +9.8 40 +25 +26 комфорт 1009.0 1001.0
18 24.05 З 2
{8}
10 км 6/3 900 м
[Sc diur, vesp Ac und Cs]
+21.8 +11.4 52 +24 +24 комфорт 1009.8 1001.7 +26.8
21 24.05 штиль 0
{4}
10 км 5/3 900 м
[Sc diur, vesp Ac und Cs]
+15.2 +12.7 85 +15 +15 1011.3 1003.0
00 25.05 штиль 0
{4}
10 км 3/1 600 м
[Cu hum Ac trans]
+13.4 +11.5 88 +13 +13 1012.0 1003.7
03 25.05 штиль 0
{3}
10 км 1/1 600 м
[Cu hum Ac trans]
+11.8 +10.6 92 +11 +11 1012.6 1004.2
06 25.05 штиль 0
{2}
10 км 1/1 600 м
[Cu hum]
+19.2 +13.0 67 +20 +27 1013.9 1005.7 +11.7
09 25.05 З 2
{7}
10 км 3/1 600 м
[Cu hum Ci fib]
+24.6 +10.3 40 +26 +41 жарко 1014.2 1006.1
12 25.05 З 2
{7}
10 км 4/1 900 м
[Cu hum Ci fib]
+27.0 +8.7 32 +27 +42 жарко 1013.2 1005.2
15 25.05 В 5
{8}
10 км 4/3 900 м
[Cu hum Ci fib]
+29.0 +7.7 26 +28 +30 жарко 1012.0 1004.0
18 25.05 В 4
{9}
10 км 3/3 600 м
[Cu hum Ci fib]
+22.6 +9.2 42 +24 +24 комфорт 1013.0 1004.9 +29.2
21 25.05 штиль 0
{7}
10 км 1/1 600 м
[Cu hum]
+17.6 +11.0 65 +18 +18 1014.9 1006.6
00 26.05 штиль 0
{3}
10 км 1/1 600 м
[Cu hum]
+15.8 +11.1 74 +16 +16 1015.4 1007.1
03 26.05 штиль 0
{3}
10 км 4/0
[Ci fib]
+13.2 +11.1 87 +13 +13 1015.0 1006.5
06 26.05 штиль 0
{2}
10 км 1/0 2000 м
[Ac lent Ci fib]
+20.6 +11.9 57 +22 +30 комфорт 1015.9 1007.7 +12.3
09 26.05 В 3
{7}
10 км 4/0 2000 м
[Ac lent Ci fib]
+26.8 +12.3 41 +28 +41 жарко 1015.3 1007.3
12 26.05 В 5
{9}
10 км 9/1 750 м
[Cu hum Ac lent Cs]
+28.0 +12.4 38 +29 +34 жарко 1014.7 1006.7
15 26.05 В 6
{11}
10 км 8/1 750 м
[Cu hum Ac lent Cs]
+28.0 +11.0 35 +29 +30 жарко 1014.1 1006.1
18 26.05 В 5
{11}
10 км 6/1 750 м
[Cu hum Ac trans Ci fib]
+23.0 +11.3 48 +25 +25 комфорт 1014.5 1006.4 +28.6
21 26.05 штиль 0
{7}
10 км 5/1 750 м
[Cu hum Ac trans Ci fib]
+19.4 +11.8 61 +20 +20 1015.4 1007.2
03 27.05 штиль 0
{4}
10 км 5/1 750 м
[Cu hum Ac trans Ci fib]
+15.8 +13.8 88 +16 +16 1014.6 1006.2
06 27.05 штиль 0
{3}
10 км 10/0 2000 м
[Ac trans Cs]
+19.0 +15.7 81 +20 +26 1016.3 1008.0 +15.6
09 27.05 штиль 0
{4}
10 км слаб. дождь 10/3 750 м
[Cu med, cong Ac und Cs]
+19.8 +16.7 82 +22 +31 комфорт 1017.0 1008.7
12 27.05 штиль 0
{6}
10 км в посл. час дождь 10/3 900 м
[Cu hum Ac und Cs]
+20.2 +16.5 79 +23 +31 комфорт 1015.6 1007.4 1

 

Местоположение метеостанции Лариса (Греция): широта 39.63 долгота 22.42 высота над уровнем моря 74 м.

В архиве по умолчанию представлена погода в Ларисе за последнюю неделю. Архивные данные за месяц целиком и за предыдущие месяцы, начиная с января 2011 года, Вы можете получить, выбрав интересующий диапазон дат из раскрывающегося списка и нажав кнопку "Ввод!".


*Определитесь, кто Вы:
робот инопланетянин человек

Внимание! Время в таблицах - всемирное. Для получения местного времени необходимо прибавить поправку, которая равна 2 ч.

Смотрите также архив погоды в соседних городах и на ближайших метеорологических станциях:

Погода в Ламии (Греция) (81 км)
Погода в Козани (Греция) (92 км)
Погода в Скиатосе (Греция) (105 км)
Погода в Салониках (Греция) (110 км)
Погода в Кастории (Греция) (133 км)
Погода в Янине (Греция) (137 км)
Погода в Конице (Греция) (151 км)
Погода во Флорине (Греция) (154 км)
Погода в Гевгелии (Македония) (169 км)
Погода в Корке (Албания) (177 км)

Пояснения к столбцам:

Ветер - указаны скорость ветра в м/с - средняя за 10 мин, порывы в срок и между сроками (в фигурных скобках) и направление, откуда дует ветер: С - северный, СВ - северо-восточный, В - восточный, ЮВ - юго-восточный, Ю - южный, ЮЗ - юго-западный, З - западный, СЗ - северо-западный.
Видимость - горизонтальная дальность видимости в метрах или километрах. При видимости от 1 до 10 км при отсутствии осадков обычно наблюдается дымка, при ухудшении видимости до 1 км и менее - туман. В сухую погоду видимость может ухудшаться дымом, пылью или мглою.
Явления - указаны атмосферные явления, наблюдавшиеся в срок или в последний час перед сроком; фигурными скобками обозначены явления, наблюдавшиеся между сроками (за 1-3 часа до срока); квадратными скобками обозначены град или гололедные отложения с указанием их диаметра в мм.
Облачность - указаны через наклонную черту общая и нижняя облачность в баллах и высота нижней границы облаков в метрах; квадратными скобками обозначены формы облаков: Ci - перистые, Cs - перисто-слоистые, Cc - перисто-кучевые, Ac - высококучевые, As - высокослоистые, Sc - слоисто-кучевые, Ns - слоисто-дождевые, Cu - кучевые, Cb - кучево-дождевые. Подробнее классификацию облаков см. в Атласе облаков (PDF).
T - Температура воздуха - температура, измеренная на высоте 2 м над землей.
Td - Температура точки росы - температура, при понижении до которой содержащийся в воздухе водяной пар достигнет насыщения.
f - Относительная влажность воздуха - влажноcть воздуха, измеренная на высоте 2 м над землей.
Te - Эффективная температура - температура, которую ощущает одетый по сезону человек в тени. Характеристика душности погоды. При расчете учитывается влияние влажности воздуха и скорости ветра на теплоощущения человека.
Tes - Эффективная температура на солнце - температура, которую ощущает человек, с поправкой на солнечный нагрев. Характеристика знойности погоды. Зависит от высоты солнца над горизонтом, облачности и скорости ветра. Ночью, в пасмурную погоду, а также при ветре 12 м/с и более поправка равна нулю.
P - Атмосферное давление - приведенное к уровню моря атмосферное давление.
Po - Атмосферное давление - измеренное на уровне метеостанции атмосферное давление.
Tmin - Минимальная температура - минимум температуры воздуха на высоте 2 м над землей.
Tmax - Максимальная температура - максимум температуры воздуха на высоте 2 м над землей.
R - Количество осадков - Количество выпавших осадков за период времени, мм. При наведении курсора мыши на число - период времени, за который выпало указанное количество осадков.
R24 - Количество осадков - Количество выпавших осадков за 24 часа, мм.
S - Снежный покров - Высота снежного покрова, см. При наведении курсора мыши на число - состояние снежного покрова и степень покрытия местности в баллах.